• In Netherlands
  • List of Countries
  • For 7 days
  • Water Temperature
  • Satellite Maps
  • Weather Map
  • Weather Widgets
  • user-avatar
    Login

    Hourly Weather Etchmiadzin

    Today, 19 November, Sunday

    Time Temperature Precipitation Wind Pressure Humidity
    00:00 +9°C° 0 mm 2 mps 688 mmHg 45%
    01:00 +9°C° 0 mm 2 mps 688 mmHg 45%
    02:00 +8°C° 0 mm 2 mps 688 mmHg 45%
    03:00 +8°C° 0 mm 2 mps 688 mmHg 45%
    04:00 +8°C° 0 mm 2 mps 687 mmHg 44%
    05:00 +8°C° 0 mm 2 mps 687 mmHg 44%
    06:00 +8°C° 0 mm 2 mps 687 mmHg 43%
    07:00 +9°C° 0 mm 2 mps 687 mmHg 40%
    08:00 +12°C° 0 mm 2 mps 687 mmHg 36%
    09:00 +13°C° 0 mm 2 mps 688 mmHg 32%
    10:00 +14°C° 0 mm 2 mps 687 mmHg 30%
    11:00 +14°C° 0 mm 3 mps 687 mmHg 28%
    12:00 +16°C° 0 mm 3 mps 687 mmHg 26%
    13:00 +16°C° 0 mm 3 mps 686 mmHg 28%
    14:00 +16°C° 0 mm 3 mps 686 mmHg 29%
    15:00 +16°C° 0 mm 3 mps 685 mmHg 30%
    16:00 +14°C° 0.1 mm 3 mps 685 mmHg 36%
    17:00 +13°C° 0.1 mm 3 mps 685 mmHg 41%
    18:00 +13°C° 0.1 mm 2 mps 685 mmHg 47%
    19:00 +12°C° 0.4 mm 2 mps 685 mmHg 50%
    20:00 +12°C° 0.4 mm 2 mps 685 mmHg 54%
    21:00 +12°C° 0.4 mm 2 mps 685 mmHg 58%
    22:00 +10°C° 0 mm 2 mps 685 mmHg 57%
    23:00 +10°C° 0 mm 2 mps 685 mmHg 57%

    Tomorrow, 20 November, Monday

    Time Temperature Precipitation Wind Pressure Humidity
    00:00 +9°C° 0 mm 2 mps 685 mmHg 57%
    01:00 +9°C° 0 mm 2 mps 685 mmHg 56%
    02:00 +9°C° 0 mm 2 mps 685 mmHg 56%
    03:00 +9°C° 0 mm 2 mps 685 mmHg 55%
    04:00 +8°C° 0 mm 2 mps 685 mmHg 57%
    05:00 +8°C° 0 mm 2 mps 685 mmHg 58%
    06:00 +8°C° 0 mm 2 mps 685 mmHg 60%
    07:00 +9°C° 0 mm 2 mps 685 mmHg 59%
    08:00 +10°C° 0 mm 2 mps 685 mmHg 58%
    09:00 +10°C° 0 mm 2 mps 685 mmHg 57%
    10:00 +11°C° 0 mm 3 mps 685 mmHg 55%
    11:00 +12°C° 0 mm 3 mps 685 mmHg 53%
    12:00 +13°C° 0 mm 3 mps 684 mmHg 51%
    13:00 +13°C° 0 mm 3 mps 684 mmHg 51%
    14:00 +14°C° 0 mm 3 mps 684 mmHg 50%
    15:00 +14°C° 0 mm 3 mps 683 mmHg 50%
    16:00 +12°C° 0 mm 3 mps 683 mmHg 53%
    17:00 +12°C° 0 mm 2 mps 683 mmHg 56%
    18:00 +10°C° 0 mm 2 mps 683 mmHg 60%
    19:00 +10°C° 0 mm 2 mps 683 mmHg 61%
    20:00 +10°C° 0 mm 2 mps 683 mmHg 62%
    21:00 +9°C° 0 mm 2 mps 683 mmHg 63%
    22:00 +9°C° 0 mm 2 mps 682 mmHg 64%
    23:00 +9°C° 0 mm 2 mps 682 mmHg 64%

    Day after tomorrow, 21 November, Tuesday

    Time Temperature Precipitation Wind Pressure Humidity
    00:00 +9°C° 0 mm 2 mps 682 mmHg 65%
    01:00 +9°C° 0 mm 2 mps 682 mmHg 66%
    02:00 +9°C° 0 mm 2 mps 682 mmHg 66%
    03:00 +8°C° 0 mm 2 mps 681 mmHg 67%
    04:00 +8°C° 0 mm 2 mps 681 mmHg 68%
    05:00 +8°C° 0 mm 2 mps 681 mmHg 68%
    06:00 +8°C° 0 mm 2 mps 681 mmHg 69%
    07:00 +9°C° 0 mm 2 mps 681 mmHg 65%
    08:00 +10°C° 0 mm 2 mps 681 mmHg 61%
    09:00 +11°C° 0 mm 3 mps 681 mmHg 58%
    10:00 +12°C° 0 mm 3 mps 680 mmHg 55%
    11:00 +13°C° 0 mm 3 mps 680 mmHg 53%
    12:00 +14°C° 0 mm 4 mps 680 mmHg 51%
    13:00 +14°C° 0 mm 4 mps 679 mmHg 51%
    14:00 +14°C° 0 mm 4 mps 679 mmHg 51%
    15:00 +14°C° 0 mm 4 mps 679 mmHg 51%
    16:00 +13°C° 0 mm 3 mps 679 mmHg 57%
    17:00 +12°C° 0 mm 3 mps 679 mmHg 62%
    18:00 +12°C° 0 mm 2 mps 679 mmHg 68%
    19:00 +10°C° 0.1 mm 2 mps 679 mmHg 70%
    20:00 +10°C° 0.1 mm 2 mps 679 mmHg 71%
    21:00 +10°C° 0.1 mm 2 mps 679 mmHg 73%
    22:00 +10°C° 0 mm 2 mps 678 mmHg 73%
    23:00 +9°C° 0 mm 2 mps 678 mmHg 74%

    22 November, Wednesday

    Time Temperature Precipitation Wind Pressure Humidity
    00:00 +9°C° 0 mm 2 mps 678 mmHg 74%
    01:00 +9°C° 0 mm 2 mps 678 mmHg 74%
    02:00 +9°C° 0 mm 2 mps 677 mmHg 74%
    03:00 +9°C° 0 mm 2 mps 677 mmHg 73%
    04:00 +9°C° 0.1 mm 2 mps 677 mmHg 73%
    05:00 +9°C° 0.1 mm 2 mps 677 mmHg 73%
    06:00 +8°C° 0.1 mm 2 mps 677 mmHg 73%
    07:00 +9°C° 0.8 mm 2 mps 677 mmHg 73%
    08:00 +9°C° 0.8 mm 2 mps 678 mmHg 72%
    09:00 +9°C° 0.8 mm 2 mps 678 mmHg 72%
    10:00 +9°C° 1.8 mm 2 mps 678 mmHg 75%
    11:00 +9°C° 1.8 mm 2 mps 678 mmHg 78%
    12:00 +9°C° 1.8 mm 1 mps 678 mmHg 80%
    13:00 +9°C° 0.6 mm 2 mps 678 mmHg 77%
    14:00 +9°C° 0.6 mm 2 mps 679 mmHg 74%
    15:00 +9°C° 0.6 mm 2 mps 679 mmHg 71%
    16:00 +8°C° 0.1 mm 2 mps 679 mmHg 73%
    17:00 +8°C° 0.1 mm 1 mps 680 mmHg 74%
    18:00 +7°C° 0.1 mm 1 mps 680 mmHg 76%
    19:00 +7°C° 0.1 mm 1 mps 681 mmHg 76%
    20:00 +6°C° 0.1 mm 1 mps 681 mmHg 76%
    21:00 +5°C° 0.1 mm 2 mps 682 mmHg 76%
    22:00 +5°C° 0 mm 1 mps 682 mmHg 77%
    23:00 +5°C° 0 mm 1 mps 682 mmHg 77%

    23 November, Thursday

    Time Temperature Precipitation Wind Pressure Humidity
    00:00 +5°C° 0 mm 1 mps 682 mmHg 77%
    01:00 +4°C° 0 mm 1 mps 682 mmHg 76%
    02:00 +4°C° 0 mm 1 mps 683 mmHg 75%
    03:00 +4°C° 0 mm 1 mps 683 mmHg 74%
    04:00 +3°C° 0 mm 1 mps 683 mmHg 74%
    05:00 +3°C° 0 mm 1 mps 683 mmHg 74%
    06:00 +3°C° 0 mm 1 mps 683 mmHg 74%
    07:00 +3°C° 0 mm 1 mps 684 mmHg 71%
    08:00 +4°C° 0 mm 1 mps 684 mmHg 69%
    09:00 +5°C° 0 mm 1 mps 684 mmHg 67%
    10:00 +5°C° 0.1 mm 1 mps 684 mmHg 65%
    11:00 +5°C° 0.1 mm 2 mps 684 mmHg 63%
    12:00 +6°C° 0.1 mm 2 mps 684 mmHg 61%
    13:00 +5°C° 0.2 mm 2 mps 684 mmHg 62%
    14:00 +5°C° 0.2 mm 2 mps 684 mmHg 62%
    15:00 +5°C° 0.2 mm 2 mps 684 mmHg 63%
    16:00 +4°C° 0.1 mm 2 mps 684 mmHg 65%
    17:00 +4°C° 0.1 mm 2 mps 685 mmHg 67%
    18:00 +4°C° 0.1 mm 1 mps 686 mmHg 69%
    19:00 +3°C° 0 mm 1 mps 686 mmHg 70%
    20:00 +3°C° 0 mm 1 mps 687 mmHg 71%
    21:00 +2°C° 0 mm 1 mps 687 mmHg 73%
    22:00 +2°C° 0 mm 1 mps 687 mmHg 73%
    23:00 +2°C° 0 mm 1 mps 688 mmHg 73%

    24 November, Friday

    Time Temperature Precipitation Wind Pressure Humidity
    00:00 +2°C° 0 mm 1 mps 688 mmHg 73%
    01:00 +1°C° 0.1 mm 1 mps 688 mmHg 73%
    02:00 +1°C° 0.1 mm 1 mps 689 mmHg 73%
    03:00 -1°C° 0.1 mm 2 mps 689 mmHg 73%
    04:00 -1°C° 0 mm 2 mps 689 mmHg 72%
    05:00 -2°C° 0 mm 2 mps 690 mmHg 72%
    06:00 -3°C° 0 mm 2 mps 690 mmHg 72%
    07:00 -2°C° 0 mm 2 mps 691 mmHg 68%
    08:00 -1°C° 0 mm 2 mps 691 mmHg 65%
    09:00 +1°C° 0 mm 2 mps 692 mmHg 62%
    10:00 +2°C° 0 mm 2 mps 692 mmHg 58%
    11:00 +3°C° 0 mm 2 mps 691 mmHg 54%
    12:00 +3°C° 0 mm 2 mps 691 mmHg 50%
    13:00 +4°C° 0 mm 2 mps 691 mmHg 50%
    14:00 +4°C° 0 mm 2 mps 691 mmHg 49%
    15:00 +5°C° 0 mm 1 mps 690 mmHg 49%
    16:00 +4°C° 0 mm 1 mps 691 mmHg 50%
    17:00 +2°C° 0 mm 1 mps 691 mmHg 51%
    18:00 +1°C° 0 mm 1 mps 691 mmHg 52%
    19:00 +1°C° 0 mm 1 mps 692 mmHg 52%
    20:00 +1°C° 0 mm 1 mps 692 mmHg 51%
    21:00 +1°C° 0 mm 1 mps 692 mmHg 50%
    22:00 0°C° 0 mm 1 mps 692 mmHg 50%
    23:00 0°C° 0 mm 1 mps 692 mmHg 50%
    Show more